User: anonymous   Login
Location: Albany
(35.0000°S, 118.0000°E)
Time: 01:33:02
(UTC-05:00)
Language:

ADEOS Rocket - Orbit

View from above orbital plane
View from above orbital plane
View from above satellite
View from above satellite

Ground track
Ground track

The orbit data is extracted from the following two-line orbital elements,

1 24279U 96046C   17324.57782272 -.00000030 +00000-0 +10792-4 0  9993
2 24279 098.7655 249.2835 0299056 250.2287 168.8020 13.47097454045026
Epoch (UTC): 20 November 2017 13:52:03
Eccentricity: 0.0299056
inclination: 98.7655°
perigee height: 860 km
apogee height: 1306 km
right ascension of ascending node: 249.2835°
argument of perigee: 250.2287°
revolutions per day: 13.47097454
mean anomaly at epoch: 168.8020°
orbit number at epoch: 4502

The dashed part of the orbit path shows where the satellite is in the earth's shadow,  

DLR